Location: Commenchon
(49.6411°N, 3.1571°E)
Time: 08:07:08
(UTC+00:00)

Cosmos 220 Rocket - Pass Details

Date: 15 May 2026
Orbit: 537 x 573 km, 74.0° (Epoch: 6 June)

Event Time Altitude Azimuth Distance (km) Brightness Sun altitude
Exits shadow 20:31:34 - 175° (S) 2,161 6.4 -9.3°
Reaches altitude 10° 20:32:29 10° 171° (S) 1,813 6.0 -9.4°
Maximum altitude 20:36:09 35° 105° (ESE) 905 4.5 -9.8°
Drops below altitude 10° 20:39:54 10° 39° (NE) 1,847 6.6 -10.2°
Sets 20:42:14 0° 31° (NNE) 2,755 7.6 -10.5°
